This is the latest recevied weather packets stored in our database for station/object RV1CJ-14. If no packets are shown the sender has not sent any weather packets the latest 10 day(s).
| Time | Temp. | Humidity | Pressure | Rain* | Wind** | Luminosity | Snow |
|---|---|---|---|---|---|---|---|
| 1777377603 | 3.89° C | 68% | 1009 hPa | 0 mm | - | 62 W/m² | - |
| 1777377003 | 3.89° C | 69% | 1008.9 hPa | 0 mm | - | 77 W/m² | - |
| 1777376403 | 3.89° C | 70% | 1008.9 hPa | 0 mm | - | 91 W/m² | - |
| 1777375803 | 3.33° C | 70% | 1008.9 hPa | 0 mm | - | 107 W/m² | - |
| 1777375203 | 3.33° C | 70% | 1008.8 hPa | 0 mm | - | 79 W/m² | - |
| 1777374603 | 3.89° C | 68% | 1008.6 hPa | 0 mm | - | 100 W/m² | - |
| 1777374003 | 3.89° C | 67% | 1008.5 hPa | 0 mm | - | 118 W/m² | - |
| 1777373403 | 3.89° C | 67% | 1008.3 hPa | 0 mm | - | 118 W/m² | - |
| 1777372804 | 3.89° C | 67% | 1008.2 hPa | 0 mm | - | 91 W/m² | - |
| 1777372204 | 3.89° C | 67% | 1008.1 hPa | 0 mm | - | 72 W/m² | - |
| 1777371604 | 3.89° C | 66% | 1008 hPa | 0 mm | - | 88 W/m² | - |
| 1777371003 | 3.89° C | 65% | 1007.8 hPa | 0 mm | - | 62 W/m² | - |
| 1777370403 | 3.89° C | 64% | 1007.6 hPa | 0 mm | - | 69 W/m² | - |
| 1777369804 | 3.89° C | 64% | 1007.5 hPa | 0 mm | - | 72 W/m² | - |
| 1777369204 | 3.89° C | 63% | 1007.4 hPa | 0 mm | - | 77 W/m² | - |
| 1777368603 | 4.44° C | 63% | 1007.2 hPa | 0 mm | - | 93 W/m² | - |
| 1777368003 | 4.44° C | 63% | 1007.2 hPa | 0 mm | - | 104 W/m² | - |
| 1777367406 | 4.44° C | 62% | 1007 hPa | 0 mm | - | 134 W/m² | - |
| 1777366806 | 4.44° C | 62% | 1006.8 hPa | 0 mm | - | 323 W/m² | - |
| 1777366206 | 3.89° C | 63% | 1006.9 hPa | 0 mm | - | 227 W/m² | - |
| 1777365607 | 3.89° C | 63% | 1006.8 hPa | 0 mm | - | 153 W/m² | - |
| 1777365004 | 3.89° C | 63% | 1006.6 hPa | 0 mm | - | 58 W/m² | - |
| 1777364403 | 4.44° C | 62% | 1006.5 hPa | 0 mm | - | 58 W/m² | - |
| 1777363803 | 4.44° C | 62% | 1006.3 hPa | 0 mm | - | 95 W/m² | - |
| 1777363204 | 4.44° C | 61% | 1006 hPa | 0 mm | - | 74 W/m² | - |
* Rain latest hour (hover to see other rain measurements)
** Current wind speed in m/s (hover to see current wind gust speed)